Year,Month,Day,Hour,Minute,Value (Times are PST for windspeed in km/hr)
2021,01,05,00,00,0.00
2021,01,05,00,01,0.10
2021,01,05,00,02,1.10
2021,01,05,00,03,1.70
2021,01,05,00,04,1.40
2021,01,05,00,05,1.30
2021,01,05,00,06,0.70
2021,01,05,00,07,0.10
2021,01,05,00,08,0.00
2021,01,05,00,09,0.00
2021,01,05,00,10,0.00
2021,01,05,00,11,0.00
2021,01,05,00,12,0.00
2021,01,05,00,13,0.00
2021,01,05,00,14,0.40
2021,01,05,00,15,0.30
2021,01,05,00,16,0.00
2021,01,05,00,17,0.00
2021,01,05,00,18,0.00
2021,01,05,00,19,0.00
2021,01,05,00,20,0.00
2021,01,05,00,21,0.00
2021,01,05,00,22,0.00
2021,01,05,00,23,0.00
2021,01,05,00,24,0.00
2021,01,05,00,25,1.80
2021,01,05,00,26,2.00
2021,01,05,00,27,0.20
2021,01,05,00,28,0.00
2021,01,05,00,29,0.00
2021,01,05,00,30,0.00
2021,01,05,00,31,0.00
2021,01,05,00,32,0.00
2021,01,05,00,33,0.00
2021,01,05,00,34,0.00
2021,01,05,00,35,0.00
2021,01,05,00,36,0.00
2021,01,05,00,37,0.90
2021,01,05,00,38,0.90
2021,01,05,00,39,0.00
2021,01,05,00,40,0.00
2021,01,05,00,41,0.00
2021,01,05,00,42,0.20
2021,01,05,00,43,0.40
2021,01,05,00,44,1.00
2021,01,05,00,45,0.00
2021,01,05,00,46,1.70
2021,01,05,00,47,1.60
2021,01,05,00,48,1.10
2021,01,05,00,49,1.00
2021,01,05,00,50,0.30
2021,01,05,00,51,0.30
2021,01,05,00,52,1.40
2021,01,05,00,53,1.30
2021,01,05,00,54,2.50
2021,01,05,00,55,2.90
2021,01,05,00,56,4.20
2021,01,05,00,57,2.20
2021,01,05,00,58,2.70
2021,01,05,00,59,2.80
2021,01,05,01,00,2.60
2021,01,05,01,01,1.40
2021,01,05,01,02,1.50
2021,01,05,01,03,1.30
2021,01,05,01,04,3.60
2021,01,05,01,05,1.60
2021,01,05,01,06,2.30
2021,01,05,01,07,2.00
2021,01,05,01,08,9.40
2021,01,05,01,09,8.00
2021,01,05,01,10,7.30
2021,01,05,01,11,9.00
2021,01,05,01,12,3.60
2021,01,05,01,13,3.30
2021,01,05,01,14,4.40
2021,01,05,01,15,3.60
2021,01,05,01,16,13.80
2021,01,05,01,17,13.30
2021,01,05,01,18,15.90
2021,01,05,01,19,16.20
2021,01,05,01,20,15.90
2021,01,05,01,21,17.80
2021,01,05,01,22,14.70
2021,01,05,01,23,14.40
2021,01,05,01,24,12.10
2021,01,05,01,25,12.60
2021,01,05,01,26,11.80
2021,01,05,01,27,15.30
2021,01,05,01,28,10.10
2021,01,05,01,29,10.60
2021,01,05,01,30,10.90
2021,01,05,01,31,8.50
2021,01,05,01,32,8.20
2021,01,05,01,33,9.80
2021,01,05,01,34,13.40
2021,01,05,01,35,11.30
2021,01,05,01,36,9.70
2021,01,05,01,37,8.90
2021,01,05,01,38,7.50
2021,01,05,01,39,7.60
2021,01,05,01,40,7.30
2021,01,05,01,41,9.20
2021,01,05,01,42,5.90
2021,01,05,01,43,5.10
2021,01,05,01,44,4.00
2021,01,05,01,45,4.50
2021,01,05,01,46,5.40
2021,01,05,01,47,6.70
2021,01,05,01,48,9.20
2021,01,05,01,49,8.80
2021,01,05,01,50,6.80
2021,01,05,01,51,5.90
2021,01,05,01,52,6.30
2021,01,05,01,53,11.20
2021,01,05,01,54,7.20
2021,01,05,01,55,10.00
2021,01,05,01,56,10.80
2021,01,05,01,57,7.10
2021,01,05,01,58,6.30
2021,01,05,01,59,4.50
2021,01,05,02,00,5.40
2021,01,05,02,01,4.60
2021,01,05,02,02,3.70
2021,01,05,02,03,5.10
2021,01,05,02,04,4.20
2021,01,05,02,05,3.30
2021,01,05,02,06,3.40
2021,01,05,02,07,4.60
2021,01,05,02,08,3.00
2021,01,05,02,09,4.20
2021,01,05,02,10,4.40
2021,01,05,02,11,5.00
2021,01,05,02,12,5.20
2021,01,05,02,13,5.70
2021,01,05,02,14,5.00
2021,01,05,02,15,3.60
2021,01,05,02,16,2.30
2021,01,05,02,17,3.30
2021,01,05,02,18,3.90
2021,01,05,02,19,3.50
2021,01,05,02,20,3.60
2021,01,05,02,21,4.10
2021,01,05,02,22,3.90
2021,01,05,02,23,4.40
2021,01,05,02,24,4.30
2021,01,05,02,25,5.40
2021,01,05,02,26,4.30
2021,01,05,02,27,3.00
2021,01,05,02,28,2.70
2021,01,05,02,29,2.10
2021,01,05,02,30,3.90
2021,01,05,02,31,4.00
2021,01,05,02,32,4.90
2021,01,05,02,33,2.90
2021,01,05,02,34,2.60
2021,01,05,02,35,3.60
2021,01,05,02,36,4.50
2021,01,05,02,37,3.70
2021,01,05,02,38,3.80
2021,01,05,02,39,5.20
2021,01,05,02,40,5.30
2021,01,05,02,41,11.20
2021,01,05,02,42,7.60
2021,01,05,02,43,6.10
2021,01,05,02,44,8.70
2021,01,05,02,45,8.10
2021,01,05,02,46,6.60
2021,01,05,02,47,6.20
2021,01,05,02,48,6.70
2021,01,05,02,49,4.90
2021,01,05,02,50,5.90
2021,01,05,02,51,6.80
2021,01,05,02,52,6.00
2021,01,05,02,53,5.10
2021,01,05,02,54,6.50
2021,01,05,02,55,8.60
2021,01,05,02,56,8.50
2021,01,05,02,57,7.60
2021,01,05,02,58,7.90
2021,01,05,02,59,8.50
2021,01,05,03,00,7.50
2021,01,05,03,01,9.10
2021,01,05,03,02,9.50
2021,01,05,03,03,5.10
2021,01,05,03,04,5.90
2021,01,05,03,05,6.90
2021,01,05,03,06,7.20
2021,01,05,03,07,7.80
2021,01,05,03,08,5.70
2021,01,05,03,09,5.20
2021,01,05,03,10,6.40
2021,01,05,03,11,6.40
2021,01,05,03,12,6.70
2021,01,05,03,13,7.30
2021,01,05,03,14,8.00
2021,01,05,03,15,8.80
2021,01,05,03,16,9.10
2021,01,05,03,17,5.50
2021,01,05,03,18,6.10
2021,01,05,03,19,8.20
2021,01,05,03,20,6.80
2021,01,05,03,21,9.20
2021,01,05,03,22,10.40
2021,01,05,03,23,9.50
2021,01,05,03,24,17.30
2021,01,05,03,25,13.70
2021,01,05,03,26,11.70
2021,01,05,03,27,11.10
2021,01,05,03,28,10.50
2021,01,05,03,29,13.50
2021,01,05,03,30,13.20
2021,01,05,03,31,14.50
2021,01,05,03,32,16.20
2021,01,05,03,33,14.40
2021,01,05,03,34,16.70
2021,01,05,03,35,13.80
2021,01,05,03,36,10.70
2021,01,05,03,37,12.80
2021,01,05,03,38,13.50
2021,01,05,03,39,9.80
2021,01,05,03,40,12.90
2021,01,05,03,41,10.30
2021,01,05,03,42,9.80
2021,01,05,03,43,13.70
2021,01,05,03,44,8.90
2021,01,05,03,45,11.60
2021,01,05,03,46,11.90
2021,01,05,03,47,12.20
2021,01,05,03,48,10.00
2021,01,05,03,49,14.80
2021,01,05,03,50,10.00
2021,01,05,03,51,11.10
2021,01,05,03,52,15.00
2021,01,05,03,53,13.30
2021,01,05,03,54,13.10
2021,01,05,03,55,15.00
2021,01,05,03,56,13.10
2021,01,05,03,57,8.80
2021,01,05,03,58,10.50
2021,01,05,03,59,12.00
2021,01,05,04,00,11.40
2021,01,05,04,01,9.50
2021,01,05,04,02,15.50
2021,01,05,04,03,7.20
2021,01,05,04,04,10.80
2021,01,05,04,05,12.00
2021,01,05,04,06,14.30
2021,01,05,04,07,14.90
2021,01,05,04,08,14.50
2021,01,05,04,09,12.50
2021,01,05,04,10,15.30
2021,01,05,04,11,16.50
2021,01,05,04,12,18.50
2021,01,05,04,13,15.70
2021,01,05,04,14,18.60
2021,01,05,04,15,16.60
2021,01,05,04,16,15.10
2021,01,05,04,17,13.10
2021,01,05,04,18,15.00
2021,01,05,04,19,21.30
2021,01,05,04,20,13.90
2021,01,05,04,21,16.70
2021,01,05,04,22,18.70
2021,01,05,04,23,13.70
2021,01,05,04,24,10.70
2021,01,05,04,25,13.00
2021,01,05,04,26,9.90
2021,01,05,04,27,7.40
2021,01,05,04,28,8.60
2021,01,05,04,29,10.90
2021,01,05,04,30,12.90
2021,01,05,04,31,14.50
2021,01,05,04,32,16.00
2021,01,05,04,33,14.40
2021,01,05,04,34,8.30
2021,01,05,04,35,12.30
2021,01,05,04,36,10.50
2021,01,05,04,37,7.20
2021,01,05,04,38,8.20
2021,01,05,04,39,13.40
2021,01,05,04,40,13.20
2021,01,05,04,41,13.50
2021,01,05,04,42,11.30
2021,01,05,04,43,12.50
2021,01,05,04,44,14.90
2021,01,05,04,45,17.30
2021,01,05,04,46,9.70
2021,01,05,04,47,13.10
2021,01,05,04,48,10.50
2021,01,05,04,49,13.20
2021,01,05,04,50,7.70
2021,01,05,04,51,7.90
2021,01,05,04,52,9.80
2021,01,05,04,53,10.50
2021,01,05,04,54,20.20
2021,01,05,04,55,19.90
2021,01,05,04,56,27.00
2021,01,05,04,57,27.90
2021,01,05,04,58,23.80
2021,01,05,04,59,22.30
2021,01,05,05,00,29.90
2021,01,05,05,01,22.90
2021,01,05,05,02,22.00
2021,01,05,05,03,25.10
2021,01,05,05,04,23.30
2021,01,05,05,05,21.50
2021,01,05,05,06,22.20
2021,01,05,05,07,25.30
2021,01,05,05,08,26.70
2021,01,05,05,09,21.10
2021,01,05,05,10,27.90
2021,01,05,05,11,26.90
2021,01,05,05,12,23.60
2021,01,05,05,13,23.60
2021,01,05,05,14,23.10
2021,01,05,05,15,22.10
2021,01,05,05,16,25.20
2021,01,05,05,17,22.70
2021,01,05,05,18,23.20
2021,01,05,05,19,25.60
2021,01,05,05,20,18.40
2021,01,05,05,21,24.60
2021,01,05,05,22,23.50
2021,01,05,05,23,24.40
2021,01,05,05,24,22.00
2021,01,05,05,25,18.80
2021,01,05,05,26,13.90
2021,01,05,05,27,14.10
2021,01,05,05,28,14.90
2021,01,05,05,29,16.30
2021,01,05,05,30,21.20
2021,01,05,05,31,18.20
2021,01,05,05,32,16.10
2021,01,05,05,33,15.60
2021,01,05,05,34,20.10
2021,01,05,05,35,24.30
2021,01,05,05,36,26.30
2021,01,05,05,37,27.10
2021,01,05,05,38,24.60
2021,01,05,05,39,23.70
2021,01,05,05,40,22.40
2021,01,05,05,41,18.60
2021,01,05,05,42,18.50
2021,01,05,05,43,29.00
2021,01,05,05,44,27.40
2021,01,05,05,45,28.00
2021,01,05,05,46,26.50
2021,01,05,05,47,24.00
2021,01,05,05,48,26.20
2021,01,05,05,49,31.10
2021,01,05,05,50,27.60
2021,01,05,05,51,26.00
2021,01,05,05,52,24.60
2021,01,05,05,53,25.80
2021,01,05,05,54,21.90
2021,01,05,05,55,25.40
2021,01,05,05,56,21.30
2021,01,05,05,57,18.20
2021,01,05,05,58,22.40
2021,01,05,05,59,15.70
2021,01,05,06,00,22.80
2021,01,05,06,01,29.10
2021,01,05,06,02,25.60
2021,01,05,06,03,18.60
2021,01,05,06,04,28.10
2021,01,05,06,05,23.50
2021,01,05,06,06,26.20
2021,01,05,06,07,26.50
2021,01,05,06,08,25.50
2021,01,05,06,09,29.80
2021,01,05,06,10,33.30
2021,01,05,06,11,26.20
2021,01,05,06,12,30.30
2021,01,05,06,13,29.00
2021,01,05,06,14,32.10
2021,01,05,06,15,25.10
2021,01,05,06,16,28.80
2021,01,05,06,17,22.50
2021,01,05,06,18,21.50
2021,01,05,06,19,25.50
2021,01,05,06,20,32.50
2021,01,05,06,21,24.10
2021,01,05,06,22,29.10
2021,01,05,06,23,23.40
2021,01,05,06,24,31.70
2021,01,05,06,25,28.30
2021,01,05,06,26,27.70
2021,01,05,06,27,22.50
2021,01,05,06,28,21.80
2021,01,05,06,29,24.60
2021,01,05,06,30,26.60
2021,01,05,06,31,21.10
2021,01,05,06,32,27.70
2021,01,05,06,33,28.70
2021,01,05,06,34,26.90
2021,01,05,06,35,32.70
2021,01,05,06,36,25.80
2021,01,05,06,37,24.00
2021,01,05,06,38,23.10
2021,01,05,06,39,20.20
2021,01,05,06,40,26.90
2021,01,05,06,41,25.00
2021,01,05,06,42,21.50
2021,01,05,06,43,31.30
2021,01,05,06,44,31.80
2021,01,05,06,45,35.40
2021,01,05,06,46,28.20
2021,01,05,06,47,29.90
2021,01,05,06,48,26.50
2021,01,05,06,49,30.00
2021,01,05,06,50,28.40
2021,01,05,06,51,33.10
2021,01,05,06,52,34.30
2021,01,05,06,53,34.20
2021,01,05,06,54,34.30
2021,01,05,06,55,28.80
2021,01,05,06,56,30.80
2021,01,05,06,57,29.70
2021,01,05,06,58,33.50
2021,01,05,06,59,28.10
2021,01,05,07,00,23.80
2021,01,05,07,01,23.80
2021,01,05,07,02,29.60
2021,01,05,07,03,21.90
2021,01,05,07,04,23.10
2021,01,05,07,05,32.00
2021,01,05,07,06,23.70
2021,01,05,07,07,29.80
2021,01,05,07,08,37.60
2021,01,05,07,09,35.90
2021,01,05,07,10,31.70
2021,01,05,07,11,24.50
2021,01,05,07,12,27.90
2021,01,05,07,13,29.80
2021,01,05,07,14,28.00
2021,01,05,07,15,28.80
2021,01,05,07,16,32.50
2021,01,05,07,17,32.20
2021,01,05,07,18,34.10
2021,01,05,07,19,34.40
2021,01,05,07,20,32.40
2021,01,05,07,21,38.00
2021,01,05,07,22,35.30
2021,01,05,07,23,39.90
2021,01,05,07,24,42.90
2021,01,05,07,25,45.90
2021,01,05,07,26,36.90
2021,01,05,07,27,33.10
2021,01,05,07,28,28.00
2021,01,05,07,29,28.80
2021,01,05,07,30,27.60
2021,01,05,07,31,35.00
2021,01,05,07,32,32.60
2021,01,05,07,33,41.50
2021,01,05,07,34,39.90
2021,01,05,07,35,36.30
2021,01,05,07,36,31.60
2021,01,05,07,37,36.40
2021,01,05,07,38,37.80
2021,01,05,07,39,41.70
2021,01,05,07,40,36.00
2021,01,05,07,41,45.20
2021,01,05,07,42,46.10
2021,01,05,07,43,36.10
2021,01,05,07,44,43.60
2021,01,05,07,45,41.10
2021,01,05,07,46,39.20
2021,01,05,07,47,37.10
2021,01,05,07,48,34.90
2021,01,05,07,49,34.50
2021,01,05,07,50,45.10
2021,01,05,07,51,42.60
2021,01,05,07,52,47.20
2021,01,05,07,53,42.80
2021,01,05,07,54,40.10
2021,01,05,07,55,33.70
2021,01,05,07,56,48.00
2021,01,05,07,57,35.40
2021,01,05,07,58,38.40
2021,01,05,07,59,43.40
2021,01,05,08,00,44.40
2021,01,05,08,01,41.90
2021,01,05,08,02,40.80
2021,01,05,08,03,38.40
2021,01,05,08,04,44.20
2021,01,05,08,05,42.10
2021,01,05,08,06,41.40
2021,01,05,08,07,44.30
2021,01,05,08,08,42.60
2021,01,05,08,09,38.90
2021,01,05,08,10,44.10
2021,01,05,08,11,41.00
2021,01,05,08,12,47.60
2021,01,05,08,13,48.60
2021,01,05,08,14,39.00
2021,01,05,08,15,49.20
2021,01,05,08,16,50.30
2021,01,05,08,17,37.60
2021,01,05,08,18,42.10
2021,01,05,08,19,34.30
2021,01,05,08,20,49.40
2021,01,05,08,21,45.70
2021,01,05,08,22,34.00
2021,01,05,08,23,35.60
2021,01,05,08,24,44.60
2021,01,05,08,25,41.50
2021,01,05,08,26,37.00
2021,01,05,08,27,42.00
2021,01,05,08,28,40.70
2021,01,05,08,29,37.00
2021,01,05,08,30,31.20
2021,01,05,08,31,40.10
2021,01,05,08,32,41.10
2021,01,05,08,33,31.60
2021,01,05,08,34,36.80
2021,01,05,08,35,42.00
2021,01,05,08,36,36.90
2021,01,05,08,37,35.80
2021,01,05,08,38,42.80
2021,01,05,08,39,43.30
2021,01,05,08,40,41.80
2021,01,05,08,41,40.60
2021,01,05,08,42,37.10
2021,01,05,08,43,37.30
2021,01,05,08,44,39.50
2021,01,05,08,45,41.60
2021,01,05,08,46,33.90
2021,01,05,08,47,37.10
2021,01,05,08,48,44.30
2021,01,05,08,49,44.50
2021,01,05,08,50,43.60
2021,01,05,08,51,40.20
2021,01,05,08,52,37.80
2021,01,05,08,53,37.70
2021,01,05,08,54,37.00
2021,01,05,08,55,40.50
2021,01,05,08,56,43.30
2021,01,05,08,57,41.00
2021,01,05,08,58,39.70
2021,01,05,08,59,47.80
2021,01,05,09,00,42.90
2021,01,05,09,01,37.40
2021,01,05,09,02,46.10
2021,01,05,09,03,42.40
2021,01,05,09,04,40.30
2021,01,05,09,05,44.90
2021,01,05,09,06,50.00
2021,01,05,09,07,43.60
2021,01,05,09,08,38.60
2021,01,05,09,09,43.10
2021,01,05,09,10,43.90
2021,01,05,09,11,40.50
2021,01,05,09,12,42.30
2021,01,05,09,13,45.30
2021,01,05,09,14,33.00
2021,01,05,09,15,35.70
2021,01,05,09,16,41.10
2021,01,05,09,17,33.60
2021,01,05,09,18,35.40
2021,01,05,09,19,30.30
2021,01,05,09,20,35.60
2021,01,05,09,21,36.80
2021,01,05,09,22,41.80
2021,01,05,09,23,39.80
2021,01,05,09,24,34.00
2021,01,05,09,25,32.60
2021,01,05,09,26,37.10
2021,01,05,09,27,37.00
2021,01,05,09,28,38.10
2021,01,05,09,29,34.30
2021,01,05,09,30,43.50
2021,01,05,09,31,47.00
2021,01,05,09,32,43.60
2021,01,05,09,33,32.70
2021,01,05,09,34,34.90
2021,01,05,09,35,39.20
2021,01,05,09,36,44.90
2021,01,05,09,37,40.20
2021,01,05,09,38,42.90
2021,01,05,09,39,39.30
2021,01,05,09,40,33.00
2021,01,05,09,41,31.90
2021,01,05,09,42,38.00
2021,01,05,09,43,41.30
2021,01,05,09,44,43.20
2021,01,05,09,45,37.10
2021,01,05,09,46,36.20
2021,01,05,09,47,43.50
2021,01,05,09,48,34.00
2021,01,05,09,49,35.00
2021,01,05,09,50,32.70
2021,01,05,09,51,39.30
2021,01,05,09,52,39.50
2021,01,05,09,53,37.00
2021,01,05,09,54,32.40
2021,01,05,09,55,31.40
2021,01,05,09,56,29.90
2021,01,05,09,57,27.20
2021,01,05,09,58,35.30
2021,01,05,09,59,29.10
2021,01,05,10,00,32.50
2021,01,05,10,01,36.30
2021,01,05,10,02,37.10
2021,01,05,10,03,38.60
2021,01,05,10,04,40.40
2021,01,05,10,05,34.50
2021,01,05,10,06,33.10
2021,01,05,10,07,34.40
2021,01,05,10,08,46.70
2021,01,05,10,09,41.10
2021,01,05,10,10,40.70
2021,01,05,10,11,35.40
2021,01,05,10,12,42.60
2021,01,05,10,13,44.30
2021,01,05,10,14,39.00
2021,01,05,10,15,35.70
2021,01,05,10,16,35.10
2021,01,05,10,17,36.20
2021,01,05,10,18,46.60
2021,01,05,10,19,44.50
2021,01,05,10,20,42.50
2021,01,05,10,21,44.60
2021,01,05,10,22,39.70
2021,01,05,10,23,46.40
2021,01,05,10,24,45.60
2021,01,05,10,25,44.40
2021,01,05,10,26,43.80
2021,01,05,10,27,39.80
2021,01,05,10,28,45.00
2021,01,05,10,29,46.00
2021,01,05,10,30,46.50
2021,01,05,10,31,37.60
2021,01,05,10,32,35.50
2021,01,05,10,33,46.20
2021,01,05,10,34,41.60
2021,01,05,10,35,43.90
2021,01,05,10,36,52.70
2021,01,05,10,37,44.60
2021,01,05,10,38,50.30
2021,01,05,10,39,39.20
2021,01,05,10,40,53.90
2021,01,05,10,41,56.60
2021,01,05,10,42,46.00
2021,01,05,10,43,37.40
2021,01,05,10,44,46.80
2021,01,05,10,45,40.30
2021,01,05,10,46,55.70
2021,01,05,10,47,49.10
2021,01,05,10,48,46.70
2021,01,05,10,49,53.80
2021,01,05,10,50,50.80
2021,01,05,10,51,53.20
2021,01,05,10,52,45.20
2021,01,05,10,53,50.30
2021,01,05,10,54,49.40
2021,01,05,10,55,52.20
2021,01,05,10,56,45.80
2021,01,05,10,57,48.60
2021,01,05,10,58,44.40
2021,01,05,10,59,43.00
2021,01,05,11,00,44.60
2021,01,05,11,01,50.20
2021,01,05,11,02,53.10
2021,01,05,11,03,37.70
2021,01,05,11,04,45.90
2021,01,05,11,05,43.30
2021,01,05,11,06,46.10
2021,01,05,11,07,45.10
2021,01,05,11,08,39.00
2021,01,05,11,09,42.70
2021,01,05,11,10,45.20
2021,01,05,11,11,51.40
2021,01,05,11,12,49.60
2021,01,05,11,13,47.40
2021,01,05,11,14,54.10
2021,01,05,11,15,43.90
2021,01,05,11,16,46.90
2021,01,05,11,17,41.50
2021,01,05,11,18,41.60
2021,01,05,11,19,45.90
2021,01,05,11,20,42.60
2021,01,05,11,21,43.50
2021,01,05,11,22,51.30
2021,01,05,11,23,40.00
2021,01,05,11,24,40.70
2021,01,05,11,25,45.90
2021,01,05,11,26,45.10
2021,01,05,11,27,41.30
2021,01,05,11,28,49.70
2021,01,05,11,29,38.30
2021,01,05,11,30,37.10
2021,01,05,11,31,40.80
2021,01,05,11,32,33.40
2021,01,05,11,33,35.90
2021,01,05,11,34,42.10
2021,01,05,11,35,55.50
2021,01,05,11,36,45.40
2021,01,05,11,37,52.30
2021,01,05,11,38,52.40
2021,01,05,11,39,39.60
2021,01,05,11,40,51.70
2021,01,05,11,41,48.10
2021,01,05,11,42,45.40
2021,01,05,11,43,34.50
2021,01,05,11,44,48.50
2021,01,05,11,45,41.30
2021,01,05,11,46,46.80
2021,01,05,11,47,45.40
2021,01,05,11,48,45.00
2021,01,05,11,49,34.70
2021,01,05,11,50,42.70
2021,01,05,11,51,53.20
2021,01,05,11,52,34.00
2021,01,05,11,53,38.80
2021,01,05,11,54,44.50
2021,01,05,11,55,42.30
2021,01,05,11,56,43.20
2021,01,05,11,57,42.40
2021,01,05,11,58,46.50
2021,01,05,11,59,42.90
2021,01,05,12,00,42.80
2021,01,05,12,01,49.20
2021,01,05,12,02,57.20
2021,01,05,12,03,41.40
2021,01,05,12,04,47.80
2021,01,05,12,05,48.80
2021,01,05,12,06,51.30
2021,01,05,12,07,46.80
2021,01,05,12,08,48.60
2021,01,05,12,09,52.40
2021,01,05,12,10,43.60
2021,01,05,12,11,41.70
2021,01,05,12,12,37.60
2021,01,05,12,13,45.50
2021,01,05,12,14,47.20
2021,01,05,12,15,43.30
2021,01,05,12,16,47.30
2021,01,05,12,17,40.50
2021,01,05,12,18,44.50
2021,01,05,12,19,42.60
2021,01,05,12,20,42.50
2021,01,05,12,21,47.00
2021,01,05,12,22,50.40
2021,01,05,12,23,53.00
2021,01,05,12,24,55.10
2021,01,05,12,25,57.60
2021,01,05,12,26,56.60
2021,01,05,12,27,38.00
2021,01,05,12,28,50.70
2021,01,05,12,29,54.10
2021,01,05,12,30,57.50
2021,01,05,12,31,54.40
2021,01,05,12,32,53.20
2021,01,05,12,33,56.40
2021,01,05,12,34,49.70
2021,01,05,12,35,44.60
2021,01,05,12,36,45.10
2021,01,05,12,37,44.80
2021,01,05,12,38,39.20
2021,01,05,12,39,42.90
2021,01,05,12,40,33.50
2021,01,05,12,41,30.40
2021,01,05,12,42,38.70
2021,01,05,12,43,47.90
2021,01,05,12,44,47.20
2021,01,05,12,45,57.40
2021,01,05,12,46,54.20
2021,01,05,12,47,60.60
2021,01,05,12,48,54.20
2021,01,05,12,49,49.70
2021,01,05,12,50,59.90
2021,01,05,12,51,52.00
2021,01,05,12,52,43.00
2021,01,05,12,53,42.70
2021,01,05,12,54,39.90
2021,01,05,12,55,56.60
2021,01,05,12,56,41.80
2021,01,05,12,57,45.70
2021,01,05,12,58,46.00
2021,01,05,12,59,51.30
2021,01,05,13,00,51.40
2021,01,05,13,01,50.90
2021,01,05,13,02,51.60
2021,01,05,13,03,44.90
2021,01,05,13,04,54.40
2021,01,05,13,05,44.30
2021,01,05,13,06,54.40
2021,01,05,13,07,42.30
2021,01,05,13,08,42.60
2021,01,05,13,09,31.50
2021,01,05,13,10,44.10
2021,01,05,13,11,30.70
2021,01,05,13,12,33.30
2021,01,05,13,13,36.40
2021,01,05,13,14,37.30
2021,01,05,13,15,41.80
2021,01,05,13,16,35.60
2021,01,05,13,17,33.60
2021,01,05,13,18,41.70
2021,01,05,13,19,41.20
2021,01,05,13,20,40.90
2021,01,05,13,21,33.40
2021,01,05,13,22,37.00
2021,01,05,13,23,35.30
2021,01,05,13,24,36.20
2021,01,05,13,25,49.10
2021,01,05,13,26,50.60
2021,01,05,13,27,52.70
2021,01,05,13,28,56.20
2021,01,05,13,29,47.90
2021,01,05,13,30,45.70
2021,01,05,13,31,36.20
2021,01,05,13,32,42.00
2021,01,05,13,33,48.00
2021,01,05,13,34,44.20
2021,01,05,13,35,47.60
2021,01,05,13,36,55.70
2021,01,05,13,37,63.30
2021,01,05,13,38,55.90
2021,01,05,13,39,60.70
2021,01,05,13,40,53.40
2021,01,05,13,41,48.60
2021,01,05,13,42,46.10
2021,01,05,13,43,38.10
2021,01,05,13,44,50.30
2021,01,05,13,45,34.90
2021,01,05,13,46,50.10
2021,01,05,13,47,53.50
2021,01,05,13,48,58.40
2021,01,05,13,49,42.80
2021,01,05,13,50,57.60
2021,01,05,13,51,55.20
2021,01,05,13,52,37.40
2021,01,05,13,53,39.40
2021,01,05,13,54,31.10
2021,01,05,13,55,30.30
2021,01,05,13,56,32.10
2021,01,05,13,57,32.30
2021,01,05,13,58,35.20
2021,01,05,13,59,46.60
2021,01,05,14,00,36.10
2021,01,05,14,01,46.40
2021,01,05,14,02,40.80
2021,01,05,14,03,41.30
2021,01,05,14,04,38.90
2021,01,05,14,05,47.10
2021,01,05,14,06,45.80
2021,01,05,14,07,48.30
2021,01,05,14,08,47.00
2021,01,05,14,09,32.40
2021,01,05,14,10,40.90
2021,01,05,14,11,44.90
2021,01,05,14,12,52.90
2021,01,05,14,13,43.50
2021,01,05,14,14,47.70
2021,01,05,14,15,37.70
2021,01,05,14,16,51.90
2021,01,05,14,17,55.30
2021,01,05,14,18,47.80
2021,01,05,14,19,42.40
2021,01,05,14,20,45.10
2021,01,05,14,21,51.80
2021,01,05,14,22,43.00
2021,01,05,14,23,38.90
2021,01,05,14,24,45.20
2021,01,05,14,25,38.60
2021,01,05,14,26,52.50
2021,01,05,14,27,54.50
2021,01,05,14,28,47.10
2021,01,05,14,29,30.40
2021,01,05,14,30,34.70
2021,01,05,14,31,47.00
2021,01,05,14,32,37.50
2021,01,05,14,33,44.00
2021,01,05,14,34,52.80
2021,01,05,14,35,53.60
2021,01,05,14,36,49.80
2021,01,05,14,37,52.90
2021,01,05,14,38,58.50
2021,01,05,14,39,51.10
2021,01,05,14,40,48.10
2021,01,05,14,41,46.20
2021,01,05,14,42,51.10
2021,01,05,14,43,39.40
2021,01,05,14,44,40.00
2021,01,05,14,45,48.20
2021,01,05,14,46,50.60
2021,01,05,14,47,50.30
2021,01,05,14,48,45.80
2021,01,05,14,49,56.20
2021,01,05,14,50,58.30
2021,01,05,14,51,59.50
2021,01,05,14,52,52.20
2021,01,05,14,53,52.60
2021,01,05,14,54,55.70
2021,01,05,14,55,50.10
2021,01,05,14,56,55.60
2021,01,05,14,57,44.50
2021,01,05,14,58,47.00
2021,01,05,14,59,55.60
2021,01,05,15,00,50.10
2021,01,05,15,01,39.00
2021,01,05,15,02,43.90
2021,01,05,15,03,38.70
2021,01,05,15,04,44.50
2021,01,05,15,05,43.80
2021,01,05,15,06,45.90
2021,01,05,15,07,40.50
2021,01,05,15,08,52.20
2021,01,05,15,09,47.80
2021,01,05,15,10,53.00
2021,01,05,15,11,55.70
2021,01,05,15,12,46.30
2021,01,05,15,13,42.00
2021,01,05,15,14,51.40
2021,01,05,15,15,53.80
2021,01,05,15,16,46.80
2021,01,05,15,17,43.20
2021,01,05,15,18,43.00
2021,01,05,15,19,50.40
2021,01,05,15,20,58.00
2021,01,05,15,21,55.70
2021,01,05,15,22,50.30
2021,01,05,15,23,51.00
2021,01,05,15,24,51.70
2021,01,05,15,25,56.20
2021,01,05,15,26,47.10
2021,01,05,15,27,41.60
2021,01,05,15,28,47.20
2021,01,05,15,29,53.80
2021,01,05,15,30,42.80
2021,01,05,15,31,45.70
2021,01,05,15,32,35.30
2021,01,05,15,33,40.60
2021,01,05,15,34,35.60
2021,01,05,15,35,45.40
2021,01,05,15,36,41.10
2021,01,05,15,37,47.80
2021,01,05,15,38,48.60
2021,01,05,15,39,55.50
2021,01,05,15,40,44.90
2021,01,05,15,41,34.30
2021,01,05,15,42,39.00
2021,01,05,15,43,38.80
2021,01,05,15,44,56.10
2021,01,05,15,45,43.70
2021,01,05,15,46,48.80
2021,01,05,15,47,48.60
2021,01,05,15,48,44.40
2021,01,05,15,49,52.20
2021,01,05,15,50,41.20
2021,01,05,15,51,45.50
2021,01,05,15,52,40.40
2021,01,05,15,53,44.90
2021,01,05,15,54,43.50
2021,01,05,15,55,43.80
2021,01,05,15,56,45.60
2021,01,05,15,57,47.30
2021,01,05,15,58,45.80
2021,01,05,15,59,47.20
2021,01,05,16,00,51.00
2021,01,05,16,01,49.80
2021,01,05,16,02,56.00
2021,01,05,16,03,44.20
2021,01,05,16,04,44.90
2021,01,05,16,05,60.00
2021,01,05,16,06,42.90
2021,01,05,16,07,44.00
2021,01,05,16,08,52.80
2021,01,05,16,09,51.40
2021,01,05,16,10,45.20
2021,01,05,16,11,38.70
2021,01,05,16,12,52.80
2021,01,05,16,13,57.10
2021,01,05,16,14,50.90
2021,01,05,16,15,47.30
2021,01,05,16,16,53.10
2021,01,05,16,17,50.40
2021,01,05,16,18,46.30
2021,01,05,16,19,45.40
2021,01,05,16,20,48.30
2021,01,05,16,21,46.10
2021,01,05,16,22,45.90
2021,01,05,16,23,42.50
2021,01,05,16,24,49.50
2021,01,05,16,25,44.30
2021,01,05,16,26,51.60
2021,01,05,16,27,53.70
2021,01,05,16,28,51.10
2021,01,05,16,29,45.80
2021,01,05,16,30,44.80
2021,01,05,16,31,45.70
2021,01,05,16,32,42.20
2021,01,05,16,33,40.80
2021,01,05,16,34,34.80
2021,01,05,16,35,34.70
2021,01,05,16,36,34.80
2021,01,05,16,37,41.20
2021,01,05,16,38,34.50
2021,01,05,16,39,40.20
2021,01,05,16,40,41.20
2021,01,05,16,41,36.00
2021,01,05,16,42,42.00
2021,01,05,16,43,47.90
2021,01,05,16,44,54.30
2021,01,05,16,45,49.60
2021,01,05,16,46,51.10
2021,01,05,16,47,53.10
2021,01,05,16,48,53.70
2021,01,05,16,49,46.70
2021,01,05,16,50,40.80
2021,01,05,16,51,41.30
2021,01,05,16,52,44.10
2021,01,05,16,53,47.20
2021,01,05,16,54,29.70
2021,01,05,16,55,36.20
2021,01,05,16,56,50.00
2021,01,05,16,57,52.30
2021,01,05,16,58,47.10
2021,01,05,16,59,47.60
2021,01,05,17,00,49.90
2021,01,05,17,01,52.60
2021,01,05,17,02,41.80
2021,01,05,17,03,40.70
2021,01,05,17,04,38.70
2021,01,05,17,05,43.60
2021,01,05,17,06,52.10
2021,01,05,17,07,50.20
2021,01,05,17,08,51.60
2021,01,05,17,09,41.30
2021,01,05,17,10,43.30
2021,01,05,17,11,40.80
2021,01,05,17,12,45.00
2021,01,05,17,13,52.00
2021,01,05,17,14,35.60
2021,01,05,17,15,44.10
2021,01,05,17,16,40.40
2021,01,05,17,17,42.50
2021,01,05,17,18,27.10
2021,01,05,17,19,28.50
2021,01,05,17,20,28.50
2021,01,05,17,21,27.60
2021,01,05,17,22,32.30
2021,01,05,17,23,38.70
2021,01,05,17,24,35.80
2021,01,05,17,25,34.40
2021,01,05,17,26,29.00
2021,01,05,17,27,24.60